Sarasota, FL

12:20 PM EDT on April 19, 2018 (GMT -0400)
Sarasota-bradenton

Weather History for KSRQ - March, 2013

Change the Weather History Date:

Sunday, March 3, 2013

  Actual Average Record
Temperature  
Mean Temperature 49 °F 65 °F  
Max Temperature 56 °F 75 °F 87 °F (1963)
Min Temperature 41 °F 55 °F 30 °F (1980)
Degree Days  
Heating Degree Days 16 3  
Month to date heating degree days 32 9  
Since 1 July heating degree days 277 427  
Cooling Degree Days 0 3  
Month to date cooling degree days 0 9  
Year to date cooling degree days 202 113  
Moisture  
Dew Point 35 °F    
Average Humidity 56    
Maximum Humidity 63    
Minimum Humidity 50    
Precipitation  
Precipitation 0.00 in 0.13 in 2.18 in (1943)
Month to date precipitation T 0.37  
Year to date precipitation 1.14 5.56  
Sea Level Pressure  
Sea Level Pressure 30.07 in    
Wind  
Wind Speed 12 mph (NNW)    
Max Wind Speed 23 mph    
Max Gust Speed 31 mph    
Visibility 10 miles    
Events      
T = Trace of Precipitation, MM = Missing Value Source: NWS Daily Summary

Daily Weather History Graph

Daily Weather History Graph

Search for Another Location

Airport or City:

Astronomy

Mar. 03, 2013 Rise Set
Actual Time 6:52 AM EST 6:32 PM EST
Civil Twilight 6:28 AM EST 6:55 PM EST
Nautical Twilight 6:01 AM EST 7:22 PM EST
Astronomical Twilight 5:34 AM EST 7:49 PM EST
Moon No Moon Rise 10:41 AM EST (3/3)
Length of Visible Light 12h 26m
Length of Day
11h 40m
Waning Gibbous, 64% of the Moon is Illuminated
Mar 3
Waning Gibbous
Mar 4
Last Quarter
Mar 11
New
Mar 19
First Quarter
Mar 27
Full

Hourly Weather History & Observations

Time (EST) Temp. Windchill Dew Point Humidity Pressure Visibility Wind Dir Wind Speed Gust Speed Precip Events Conditions
12:53 AM 54.0 °F - 37.9 °F 55% 30.00 in 10.0 mi NNW 10.4 mph 18.4 mph N/A   Overcast
1:53 AM 52.0 °F - 37.9 °F 59% 29.99 in 10.0 mi NW 10.4 mph - N/A   Partly Cloudy
2:53 AM 48.9 °F - 36.0 °F 61% 30.00 in 10.0 mi North 12.7 mph 20.7 mph N/A   Clear
3:53 AM 44.1 °F 39.0 °F 32.0 °F 63% 30.01 in 10.0 mi NNE 9.2 mph - N/A   Clear
4:53 AM 42.1 °F 37.1 °F 28.9 °F 60% 30.02 in 10.0 mi NE 8.1 mph - N/A   Clear
5:53 AM 41.0 °F 34.7 °F 28.9 °F 62% 30.03 in 10.0 mi NE 10.4 mph - N/A   Partly Cloudy
7:53 AM 44.1 °F 40.8 °F 28.9 °F 55% 30.06 in 10.0 mi ENE 5.8 mph - N/A   Clear
8:53 AM 46.9 °F - 30.0 °F 52% 30.07 in 10.0 mi NNE 10.4 mph - N/A   Clear
9:53 AM 48.9 °F - 30.9 °F 50% 30.09 in 10.0 mi North 8.1 mph - N/A   Overcast
10:03 AM 48.2 °F - 30.2 °F 50% 30.09 in 10.0 mi ENE 5.8 mph - N/A   Overcast
10:21 AM 51.8 °F - 33.8 °F 50% 30.09 in 10.0 mi Variable 6.9 mph - N/A   Mostly Cloudy
10:53 AM 48.0 °F - 33.1 °F 56% 30.09 in 10.0 mi North 6.9 mph - N/A   Overcast
11:53 AM 52.0 °F - 36.0 °F 54% 30.08 in 10.0 mi NW 9.2 mph - N/A   Overcast
12:53 PM 53.1 °F - 36.0 °F 52% 30.06 in 10.0 mi NNW 12.7 mph 20.7 mph N/A   Overcast
1:53 PM 54.0 °F - 37.9 °F 55% 30.04 in 10.0 mi WNW 13.8 mph - N/A   Mostly Cloudy
2:53 PM 55.0 °F - 37.9 °F 53% 30.04 in 10.0 mi NW 16.1 mph 25.3 mph N/A   Overcast
3:53 PM 54.0 °F - 37.9 °F 55% 30.04 in 10.0 mi NW 19.6 mph 25.3 mph N/A   Overcast
4:53 PM 54.0 °F - 37.9 °F 55% 30.06 in 10.0 mi NW 21.9 mph 26.5 mph N/A   Mostly Cloudy
5:53 PM 53.1 °F - 37.9 °F 57% 30.07 in 10.0 mi NW 15.0 mph - N/A   Scattered Clouds
6:53 PM 52.0 °F - 37.9 °F 59% 30.09 in 10.0 mi NW 13.8 mph - N/A   Scattered Clouds
7:53 PM 52.0 °F - 37.0 °F 57% 30.11 in 10.0 mi NW 15.0 mph 23.0 mph N/A   Scattered Clouds
8:53 PM 51.1 °F - 35.1 °F 54% 30.13 in 10.0 mi NW 15.0 mph 21.9 mph N/A   Clear
9:53 PM 51.1 °F - 35.1 °F 54% 30.16 in 10.0 mi NW 11.5 mph 23.0 mph N/A   Clear
10:53 PM 52.0 °F - 39.0 °F 61% 30.17 in 10.0 mi NNW 8.1 mph - N/A   Overcast
11:53 PM 53.1 °F - 39.0 °F 59% 30.17 in 10.0 mi NW 9.2 mph - N/A   Overcast